LRBS Weather Reports


Display with metric or nautical units.
time (UTC)temp
F
wind
direction
speed
MPH
gust
MPH
rain 1hr
in
rain 24hr
in
rain mn
in
humidity
%
barometer
mb
20260902164928 82 20 7.0 0.0 0.00 0.00 0.00 45 1016.0
20260902163314 82 20 7.0 0.0 0.00 0.00 0.00 45 1016.0
20260902161814 84 10 5.0 0.0 0.00 0.00 0.00 43 1016.0
20260902160325 84 10 5.0 0.0 0.00 0.00 0.00 43 1016.0
20260902154815 86 30 6.0 0.0 0.00 0.00 0.00 40 1016.0
20260902153313 86 30 6.0 0.0 0.00 0.00 0.00 40 1016.0
20260902151814 88 10 5.0 0.0 0.00 0.00 0.00 38 1016.0
20260902150314 88 10 5.0 0.0 0.00 0.00 0.00 38 1016.0
20260902144814 88 50 3.0 0.0 0.00 0.00 0.00 38 1016.0
20260902143315 88 50 3.0 0.0 0.00 0.00 0.00 38 1016.0
20260902141811 88 5.0 0.0 0.00 0.00 0.00 35 1017.0
20260902140314 88 5.0 0.0 0.00 0.00 0.00 35 1017.0
20260902134814 88 110 5.0 0.0 0.00 0.00 0.00 38 1017.0
20260902133313 88 110 5.0 0.0 0.00 0.00 0.00 38 1017.0
20260902131814 88 80 6.0 0.0 0.00 0.00 0.00 38 1017.0
20260902130314 88 80 6.0 0.0 0.00 0.00 0.00 38 1017.0
20260902124816 88 80 8.0 0.0 0.00 0.00 0.00 38 1017.0
20260902123314 88 80 8.0 0.0 0.00 0.00 0.00 38 1017.0
20260902121815 86 50 8.0 0.0 0.00 0.00 0.00 40 1018.0
20260902120314 86 50 8.0 0.0 0.00 0.00 0.00 40 1018.0
20260902114814 86 60 8.0 0.0 0.00 0.00 0.00 40 1018.0
20260902113314 86 60 8.0 0.0 0.00 0.00 0.00 40 1018.0
20260902111814 86 60 9.0 0.0 0.00 0.00 0.00 43 1018.0
20260902110315 86 60 9.0 0.0 0.00 0.00 0.00 43 1018.0
20260902104814 84 80 10.0 0.0 0.00 0.00 0.00 43 1019.0
20260902103314 84 80 10.0 0.0 0.00 0.00 0.00 43 1019.0
20260902101814 84 70 11.0 0.0 0.00 0.00 0.00 45 1019.0
20260902100320 84 70 11.0 0.0 0.00 0.00 0.00 45 1019.0
20260902094814 82 70 13.0 0.0 0.00 0.00 0.00 48 1019.0
20260902093314 82 70 13.0 0.0 0.00 0.00 0.00 48 1019.0
20260902091814 82 80 14.0 0.0 0.00 0.00 0.00 48 1019.0
20260902090415 81 80 14.0 0.0 0.00 0.00 0.00 51 1019.0
20260902084814 81 80 14.0 0.0 0.00 0.00 0.00 51 1019.0
20260902083314 81 80 14.0 0.0 0.00 0.00 0.00 51 1019.0
20260902081814 77 50 14.0 0.0 0.00 0.00 0.00 57 1019.0
20260902080315 77 50 14.0 0.0 0.00 0.00 0.00 57 1019.0
20260902074850 77 60 11.0 0.0 0.00 0.00 0.00 57 1019.0
20260902073314 77 60 11.0 0.0 0.00 0.00 0.00 57 1019.0
20260902071811 75 70 11.0 0.0 0.00 0.00 0.00 65 1019.0
20260902070314 75 70 11.0 0.0 0.00 0.00 0.00 65 1019.0
20260902064814 73 70 10.0 0.0 0.00 0.00 0.00 65 1019.0
20260902063315 73 70 10.0 0.0 0.00 0.00 0.00 65 1019.0
20260902061815 72 90 7.0 0.0 0.00 0.00 0.00 73 1019.0
20260902060314 72 90 7.0 0.0 0.00 0.00 0.00 73 1019.0
20260902054813 70 130 3.0 0.0 0.00 0.00 0.00 78 1019.0
20260902053314 70 130 3.0 0.0 0.00 0.00 0.00 78 1019.0
20260902051814 68 60 7.0 0.0 0.00 0.00 0.00 83 1019.0
20260902050315 68 60 7.0 0.0 0.00 0.00 0.00 83 1019.0
20260902044814 68 80 5.0 0.0 0.00 0.00 0.00 83 1019.0
20260902043314 68 80 5.0 0.0 0.00 0.00 0.00 83 1019.0
20260902041814 68 1.0 0.0 0.00 0.00 0.00 83 1019.0
20260902040318 68 1.0 0.0 0.00 0.00 0.00 83 1019.0
20260902034814 68 50 7.0 0.0 0.00 0.00 0.00 83 1018.0
20260902033315 68 50 7.0 0.0 0.00 0.00 0.00 83 1018.0
20260902031814 68 60 10.0 0.0 0.00 0.00 0.00 83 1018.0
20260902030314 68 60 10.0 0.0 0.00 0.00 0.00 83 1018.0
20260902024814 70 40 6.0 0.0 0.00 0.00 0.00 73 1018.0
20260902023314 70 40 6.0 0.0 0.00 0.00 0.00 73 1018.0
20260902021816 70 60 5.0 0.0 0.00 0.00 0.00 73 1018.0
20260902020314 70 60 5.0 0.0 0.00 0.00 0.00 73 1018.0
20260902014813 70 60 8.0 0.0 0.00 0.00 0.00 73 1018.0
20260902013314 70 60 8.0 0.0 0.00 0.00 0.00 73 1018.0
20260902011813 72 40 6.0 0.0 0.00 0.00 0.00 69 1018.0
20260902010314 72 40 6.0 0.0 0.00 0.00 0.00 69 1018.0
20260902004814 70 60 7.0 0.0 0.00 0.00 0.00 73 1018.0
20260902003313 70 60 7.0 0.0 0.00 0.00 0.00 73 1018.0
20260902001815 70 50 6.0 0.0 0.00 0.00 0.00 73 1018.0
20260902000322 70 50 6.0 0.0 0.00 0.00 0.00 73 1018.0
20260901234816 72 40 6.0 0.0 0.00 0.00 0.00 69 1018.0
20260901233314 72 40 6.0 0.0 0.00 0.00 0.00 69 1018.0
20260901231814 72 70 6.0 0.0 0.00 0.00 0.00 65 1018.0
20260901230330 72 70 6.0 0.0 0.00 0.00 0.00 65 1018.0
20260901224814 73 60 7.0 0.0 0.00 0.00 0.00 61 1018.0
20260901223314 73 60 7.0 0.0 0.00 0.00 0.00 61 1018.0
20260901221814 73 50 9.0 0.0 0.00 0.00 0.00 61 1017.0
20260901220314 73 50 9.0 0.0 0.00 0.00 0.00 61 1017.0
20260901214815 75 50 8.0 0.0 0.00 0.00 0.00 57 1017.0
20260901213419 75 50 8.0 0.0 0.00 0.00 0.00 57 1017.0
20260901211814 73 40 3.0 0.0 0.00 0.00 0.00 61 1017.0
20260901210344 73 40 3.0 0.0 0.00 0.00 0.00 61 1017.0
20260901204816 73 1.0 0.0 0.00 0.00 0.00 57 1017.0
20260901203346 73 1.0 0.0 0.00 0.00 0.00 57 1017.0
20260901201815 73 1.0 0.0 0.00 0.00 0.00 61 1017.0
20260901200314 73 1.0 0.0 0.00 0.00 0.00 61 1017.0
20260901194929 75 40 2.0 0.0 0.00 0.00 0.00 54 1017.0
20260901193337 75 40 2.0 0.0 0.00 0.00 0.00 54 1017.0
20260901191837 73 70 2.0 0.0 0.00 0.00 0.00 61 1016.0
20260901190328 73 70 2.0 0.0 0.00 0.00 0.00 61 1016.0
20260901184814 79 30 2.0 0.0 0.00 0.00 0.00 48 1016.0
20260901183314 79 30 2.0 0.0 0.00 0.00 0.00 48 1016.0
20260901181814 79 70 2.0 0.0 0.00 0.00 0.00 48 1016.0
20260901180315 79 70 2.0 0.0 0.00 0.00 0.00 48 1016.0
20260901174813 79 80 2.0 0.0 0.00 0.00 0.00 48 1015.0
20260901173315 79 80 2.0 0.0 0.00 0.00 0.00 48 1015.0
20260901171815 81 50 5.0 0.0 0.00 0.00 0.00 48 1015.0
20260901170314 81 50 5.0 0.0 0.00 0.00 0.00 48 1015.0